Retour au catalogue

STARLINK-32587

ActifCommunicationsVLEO
NORAD 62180·PAYLOAD·🇺🇸 United States

Lancé Nov 30, 2024 depuis Vandenberg Space Force Base

Loading…

Prochains Passages (prochaines 24 heures)

TLE

FraisSource: CelesTrak SupGP

Époque: Sep 15, 2026, 02:40 UTC

1 62180C 24225T   26258.11159722 -.00034503  00000+0 -28923-2 0  2583
2 62180  70.0013  46.6705 0003093 270.7001 353.2736 14.98337356    19

Suivez STARLINK-32587 en temps réel avec AllMySat

Download on the App Store